AAL1351 KSLC-KJAC

Flight info

Callsign AAL1351
Flight time N/A
Altitude 31000
Route RUGGD3 HOLTR ELLKK MOSSS
Aircraft MD83/M-SDFGIRWY/S

Departure

Time 2026-05-08 04:44
Airport Salt Lake City International Airport (KSLC)

Arrival

Time N/A
Airport Jackson Hole Airport (KJAC)
Time Latitude Longitude Altitude Speed Heading
2026-05-08 03:55 40.78939 -111.99003 4232 ft 0 kts 175°
2026-05-08 04:24 40.78943 -111.99004 4232 ft 3 kts 175°
2026-05-08 04:24 40.78969 -111.99007 4232 ft 4 kts 175°
2026-05-08 04:24 40.78990 -111.99010 4232 ft 4 kts 201°
2026-05-08 04:25 40.79004 -111.98996 4232 ft 4 kts 236°
2026-05-08 04:25 40.79009 -111.98968 4232 ft 4 kts 272°
2026-05-08 04:25 40.79009 -111.98948 4232 ft 1 kts 270°
2026-05-08 04:25 40.79009 -111.98946 4232 ft 0 kts 270°
2026-05-08 04:36 40.79009 -111.98989 4232 ft 9 kts 269°
2026-05-08 04:37 40.79004 -111.99092 4232 ft 12 kts 265°
2026-05-08 04:37 40.78998 -111.99200 4232 ft 12 kts 265°
2026-05-08 04:37 40.79024 -111.99283 4232 ft 10 kts 335°
2026-05-08 04:37 40.79087 -111.99307 4232 ft 9 kts 319°
2026-05-08 04:38 40.79100 -111.99358 4232 ft 10 kts 268°
2026-05-08 04:38 40.79015 -111.99410 4232 ft 15 kts 175°
2026-05-08 04:38 40.78937 -111.99401 4232 ft 20 kts 175°
2026-05-08 04:38 40.78795 -111.99385 4232 ft 20 kts 175°
2026-05-08 04:39 40.78662 -111.99368 4232 ft 19 kts 175°
2026-05-08 04:39 40.78597 -111.99362 4232 ft 0 kts 176°
2026-05-08 04:40 40.78581 -111.99360 4232 ft 7 kts 176°
2026-05-08 04:40 40.78499 -111.99352 4232 ft 14 kts 175°
2026-05-08 04:40 40.78397 -111.99340 4232 ft 12 kts 177°
2026-05-08 04:40 40.78327 -111.99404 4232 ft 15 kts 214°
2026-05-08 04:41 40.78212 -111.99414 4231 ft 19 kts 174°
2026-05-08 04:41 40.78070 -111.99419 4232 ft 21 kts 193°
2026-05-08 04:41 40.77921 -111.99435 4253 ft 23 kts 175°
2026-05-08 04:41 40.77757 -111.99417 4254 ft 24 kts 174°
2026-05-08 04:42 40.77599 -111.99397 4254 ft 19 kts 174°
2026-05-08 04:42 40.77544 -111.99404 4254 ft 0 kts 211°
2026-05-08 04:42 40.77539 -111.99408 4254 ft 3 kts 212°
2026-05-08 04:43 40.77517 -111.99465 4255 ft 11 kts 262°
2026-05-08 04:43 40.77562 -111.99552 4256 ft 15 kts 341°
2026-05-08 04:43 40.77790 -111.99581 4254 ft 62 kts 354°
2026-05-08 04:43 40.78414 -111.99653 4230 ft 117 kts 355°
2026-05-08 04:44 40.79392 -111.99763 4233 ft 163 kts 356°
2026-05-08 04:44 40.80590 -111.99855 4270 ft 204 kts 356°
2026-05-08 04:44 40.82025 -111.99972 5230 ft 194 kts 358°